[[{"header":{"parameterUnit":"m.s-1","parameterCategory":1,"la1":30.2992,"la2":30.254,"lo1":-89.0895,"lo2":-89.0443,"dy":0.0025,"dx":0.0025,"nx":19,"ny":19,"refTime":"2026-05-13T03:00:00:Z","depth":0,"parameterNumber":2,"parameterNumberName":"U-component_of_WINDS"},"data":[0,0,0,0.4454,0.4457,0.4625,0.4626,0.4848,0.485,0,0,0,0,0,0,0,0,0,0,0,0.4407,0.4408,0.4454,0.4458,0.4625,0.4626,0.4848,0.485,0,0,0,0,0,0,0,0,0,0,0,0.4406,0.4408,0.441,0.4458,0.4625,0.4626,0.4847,0.4718,0,0,0,0,0,0,0,0,0,0,0.4555,0.4513,0.4407,0.441,0.4459,0.4625,0.4626,0.4712,0.4727,0.4775,0,0.4816,0,0.4837,0.4865,0.4866,0,0,0,0.4457,0.4501,0.4544,0.441,0.4461,0.4625,0.4549,0.472,0.4736,0.4794,0.4819,0.4827,0.484,0.4867,0.4868,0.5146,0.5147,0,0,0.4447,0.4439,0.4532,0.4554,0.4526,0.4544,0.4554,0.473,0.4758,0.482,0.4832,0.4844,0.4868,0.487,0.5145,0.5146,0,0,0,0.4422,0.4432,0.4471,0.4545,0.4575,0.4549,0.4561,0.475,0.4763,0.4835,0.4846,0.4869,0.4872,0.5143,0.5145,0.5205,0,0,0,0.4416,0.4417,0.4467,0.4463,0.4571,0.4664,0.4577,0.4751,0.4771,0.4845,0.487,0.4874,0.5142,0.5144,0.52,0.5236,0,0,0,0.4395,0.4415,0.4439,0.4462,0.4534,0.4661,0.4685,0.4756,0.4779,0.4866,0.4875,0.5141,0.5144,0.5196,0.5228,0.5308,0,0,0,0.4371,0.449,0.444,0.4578,0.4532,0.4695,0.4683,0.4806,0.4888,0.4871,0.5142,0.5145,0.5194,0.5224,0.5303,0.5375,0.5403,0,0,0.4516,0.4507,0.4589,0.4549,0.4719,0.4671,0.4851,0.4935,0.4952,0.5081,0.5088,0.5202,0.5228,0.5307,0.556,0.5583,0,0,0,0.4632,0.4691,0.4738,0.4815,0.4881,0.4942,0.4999,0.503,0.5141,0.5015,0.5251,0.5267,0.5314,0.5349,0.5368,0.541,0.516,0.516,0.5159,0.4827,0.4842,0.4979,0.5014,0.5089,0.5147,0.521,0.5263,0.5256,0.5311,0.5351,0.5502,0.5543,0.5557,0.5601,0.5387,0.5388,0.5388,0.5388,0.5044,0.5132,0.5118,0.5247,0.5263,0.5372,0.5433,0.5425,0.553,0.5474,0.5516,0.5455,0.5581,0.5621,0.5393,0.5392,0.5391,0.5391,0.5391,0.5176,0.5221,0.5255,0.537,0.5456,0.5488,0.559,0.56,0.561,0.5652,0.5696,0.5695,0.5698,0.5672,0.5672,0.5673,0.5673,0.5674,0.5674,0.53,0.5337,0.5421,0.5502,0.5554,0.5623,0.5683,0.5735,0.5796,0.5796,0.5796,0.5786,0.5589,0.5542,0.5682,0.5681,0.568,0.5679,0.5678,0.5519,0.5471,0.5601,0.5653,0.575,0.5837,0.5847,0.5953,0.5997,0.6048,0.6028,0.5881,0.5873,0.5858,0.5819,0.6022,0.6022,0.6022,0.6023,0.5633,0.5628,0.5765,0.5847,0.5929,0.5952,0.6102,0.6151,0.6194,0.6223,0.6194,0.6142,0.6126,0.6128,0.6107,0.6071,0.6334,0.6335,0.6335,0.577,0.5774,0.5899,0.5938,0.6015,0.6081,0.6223,0.6321,0.636,0.6348,0.6247,0.6234,0.6149,0.612,0.6109,0.6076,0.6009,0,0]},{"header":{"parameterUnit":"m.s-1","parameterCategory":1,"la1":30.2992,"la2":30.254,"lo1":-89.0895,"lo2":-89.0443,"dy":0.0025,"dx":0.0025,"nx":19,"ny":19,"refTime":"2026-05-13T03:00:00:Z","depth":0,"parameterNumber":3,"parameterNumberName":"V-component_of_WINDS"},"data":[0,0,0,-2.2184,-2.2184,-2.2196,-2.2196,-2.2204,-2.2204,0,0,0,0,0,0,0,0,0,0,0,-2.2176,-2.2176,-2.2184,-2.2184,-2.2196,-2.2196,-2.2204,-2.2204,0,0,0,0,0,0,0,0,0,0,0,-2.2176,-2.2176,-2.2176,-2.2184,-2.2196,-2.2196,-2.2204,-2.2197,0,0,0,0,0,0,0,0,0,0,-2.2187,-2.2176,-2.2176,-2.2176,-2.2184,-2.2196,-2.2196,-2.2197,-2.2198,-2.2195,0,-2.2193,0,-2.2199,-2.2204,-2.2204,0,0,0,-2.2186,-2.2175,-2.2183,-2.2176,-2.2184,-2.2196,-2.2192,-2.2198,-2.2198,-2.2196,-2.2193,-2.2194,-2.2199,-2.2204,-2.2204,-2.2187,-2.2187,0,0,-2.2186,-2.2176,-2.2182,-2.2183,-2.2182,-2.2191,-2.2192,-2.2198,-2.2194,-2.2193,-2.2194,-2.2199,-2.2204,-2.2204,-2.2188,-2.2187,0,0,0,-2.2182,-2.2175,-2.2182,-2.2182,-2.2185,-2.2191,-2.2192,-2.2193,-2.2197,-2.2194,-2.2199,-2.2204,-2.2204,-2.2188,-2.2187,-2.217,0,0,0,-2.2182,-2.2173,-2.2182,-2.2176,-2.2185,-2.219,-2.2187,-2.2196,-2.2197,-2.2199,-2.2204,-2.2204,-2.2188,-2.2188,-2.2171,-2.2163,0,0,0,-2.2177,-2.2173,-2.2173,-2.2175,-2.2181,-2.219,-2.2194,-2.2197,-2.22,-2.2204,-2.2204,-2.2188,-2.2188,-2.2172,-2.2164,-2.2157,0,0,0,-2.2168,-2.2155,-2.2173,-2.2161,-2.218,-2.2179,-2.2194,-2.2193,-2.2194,-2.2204,-2.2188,-2.2188,-2.2172,-2.2165,-2.2157,-2.2149,-2.2144,0,0,-2.2146,-2.2152,-2.2146,-2.2162,-2.2156,-2.2178,-2.2169,-2.2178,-2.2186,-2.2186,-2.2186,-2.2171,-2.2164,-2.2157,-2.2122,-2.2118,0,0,0,-2.2135,-2.2131,-2.2131,-2.2134,-2.2142,-2.2149,-2.2162,-2.2166,-2.2167,-2.2185,-2.2166,-2.2162,-2.2158,-2.2155,-2.2152,-2.215,-2.2185,-2.2185,-2.2185,-2.2088,-2.2103,-2.2094,-2.2111,-2.2113,-2.2128,-2.2131,-2.2138,-2.2149,-2.2145,-2.2145,-2.2122,-2.2118,-2.2115,-2.2113,-2.2141,-2.2141,-2.2141,-2.2141,-2.2058,-2.2055,-2.2074,-2.2073,-2.2088,-2.2086,-2.2101,-2.211,-2.211,-2.2123,-2.212,-2.2132,-2.2111,-2.211,-2.214,-2.214,-2.214,-2.214,-2.214,-2.2029,-2.203,-2.2038,-2.2045,-2.2048,-2.2065,-2.2066,-2.2079,-2.2091,-2.2089,-2.2091,-2.2091,-2.2094,-2.2089,-2.2089,-2.2089,-2.2089,-2.2089,-2.2089,-2.1996,-2.2005,-2.2005,-2.2017,-2.2022,-2.2029,-2.2047,-2.2051,-2.206,-2.2069,-2.2069,-2.2082,-2.2107,-2.2113,-2.2088,-2.2088,-2.2088,-2.2088,-2.2088,-2.196,-2.1971,-2.1972,-2.1977,-2.1993,-2.1997,-2.2015,-2.2024,-2.203,-2.203,-2.2044,-2.2061,-2.2067,-2.2069,-2.2074,-2.2041,-2.2041,-2.2041,-2.2041,-2.1936,-2.1942,-2.1947,-2.1955,-2.1964,-2.1981,-2.1982,-2.1996,-2.2012,-2.2016,-2.2023,-2.2032,-2.2034,-2.2039,-2.2042,-2.2047,-2.2007,-2.2007,-2.2007,-2.1915,-2.1923,-2.192,-2.1939,-2.1953,-2.1965,-2.1966,-2.1974,-2.1994,-2.2006,-2.2021,-2.2022,-2.2036,-2.2039,-2.2049,-2.2054,-2.2064,0,0]}]]